sat.trackr.live / text

‹ back to catalog

STARLINK-4478

NORAD 53529 · 2022-101C

PAYLOAD ACTIVE UNKNOWN

§ Identity

Operator
Country
US
Launch date
2022-08-19
Launch site
AFETR
Launch vehicle
Mass (kg)
RCS (m²)

Purposes: comms

External: N2YO · Heavens-Above · Gunter

§ Orbital elements

Epoch: 2026-09-19T15:37:52.024512Z

Period
94.88 min
Inclination
53.2124°
Eccentricity
0.0002315
Mean motion
15.17694833 rev/d
Perigee alt
511.2 km
Apogee alt
514.4 km
Semi-major
6,890.9 km
B*
7.7784e-4
RAAN
275.6691°
Arg perigee
12.1380°
Mean anomaly
347.9671°
Rev number
22,555

§ Raw data

STARLINK-44781 53529U 22101C   26262.65129658  .00015588  00000+0  77784-3 0  99922 53529  53.2124 275.6691 0002315  12.1380 347.9671 15.17694833225558

JSON: /api/v1/satellites/53529 · /tle

For live sub-satellite position, see the globe view (requires WebGL).

§ Visibility from observer

Set your observer location to see the next 7 days of passes ≥ 10°. The values pass through the URL so the page stays shareable.

No JS? Fill the form by hand. The geolocation button needs JavaScript.